Total_Precipitation_Accumulation
3.13 3.08 2.98 2.96 2.70 2.83 3.02 3.38 3.26 3.45 3.42 3.02 2.58 2.43 2.46 2.53 2.46 2.56 2.84 2.84 2.67 2.75 3.53 3.98 3.82 3.47 2.98 2.48 2.20 2.05 1.97 1.77 1.56 1.32 1.24 1.35 1.38 1.37 1.26 1.05 0.93 0.80 0.64
3.42 3.39 3.24 3.19 2.91 2.85 3.14 3.46 3.45 3.94 3.82 3.64 3.11 2.79 2.64 2.61 2.59 2.71 3.01 3.18 3.11 3.06 3.52 4.08 4.29 4.17 3.71 3.11 2.64 2.34 2.27 2.18 1.93 1.51 1.34 1.45 1.54 1.48 1.43 1.27 1.05 0.89 0.71
3.55 3.44 3.38 3.23 3.18 3.16 3.35 3.44 3.57 3.98 3.73 3.67 3.49 3.18 2.95 2.74 2.60 2.82 3.21 3.52 3.17 3.10 3.48 3.97 4.38 4.35 4.16 3.82 3.27 2.86 2.53 2.30 2.12 1.79 1.49 1.37 1.43 1.41 1.36 1.31 1.14 0.92 0.70
3.57 3.64 3.40 3.18 3.32 3.32 3.54 3.84 3.84 3.93 4.04 3.96 3.75 3.42 3.28 3.16 2.71 2.77 2.95 3.12 3.33 2.89 3.31 3.96 4.25 4.00 4.02 4.19 4.11 3.82 3.32 2.72 2.41 2.09 1.76 1.59 1.54 1.46 1.33 1.26 1.15 0.96 0.71
3.36 3.69 3.51 3.51 3.53 3.73 3.67 3.38 3.95 4.15 4.14 4.05 3.50 3.43 3.07 3.04 2.95 2.71 2.82 2.89 3.10 3.06 3.12 3.27 3.84 3.64 3.83 4.33 4.63 4.74 4.42 3.78 3.07 2.59 2.24 1.97 1.87 1.64 1.42 1.28 1.15 0.94 0.73
3.25 3.57 3.37 3.39 3.61 3.99 4.09 3.99 4.24 4.17 4.03 4.10 3.44 3.24 2.93 2.64 2.65 2.59 2.42 2.68 2.76 2.49 2.69 2.93 3.33 2.84 3.08 3.56 4.07 4.66 4.97 4.88 4.17 3.38 3.01 2.75 2.57 2.12 1.61 1.34 1.15 0.99 0.82
3.14 3.52 3.21 3.64 3.72 3.92 4.09 4.06 4.29 4.23 4.01 4.13 4.08 3.51 2.89 2.49 2.41 2.25 2.26 2.47 2.40 2.46 2.77 3.21 3.46 3.35 2.96 2.90 3.14 3.81 4.72 5.28 5.06 4.34 3.90 3.60 3.36 2.86 2.09 1.63 1.26 1.02 0.90
2.96 3.08 3.61 3.60 3.72 3.93 3.99 3.96 4.05 3.86 3.59 3.94 4.23 4.06 3.34 2.88 2.46 2.03 2.25 2.26 2.40 2.68 2.69 2.75 3.17 3.53 3.33 3.34 2.88 2.84 3.95 5.05 5.53 5.31 4.94 4.54 4.12 3.35 2.59 2.08 1.59 1.23 1.05
3.06 3.20 3.47 3.56 3.63 3.53 3.76 3.95 3.76 3.72 3.61 3.66 3.91 4.13 3.64 3.05 2.55 2.23 2.10 2.14 2.50 2.75 2.62 2.57 2.54 2.79 2.87 3.32 3.47 2.94 3.09 3.53 4.37 5.41 5.79 5.58 4.77 3.60 2.82 2.40 2.05 1.60 1.25
2.88 2.99 3.15 3.34 3.50 3.42 3.58 3.45 3.49 3.64 3.65 3.49 3.64 3.59 3.48 3.28 3.10 2.66 2.25 2.13 2.35 2.46 2.43 2.23 2.25 2.58 2.75 3.21 3.38 2.79 2.46 2.40 2.76 3.92 5.06 5.29 4.81 3.79 3.07 2.81 2.74 2.37 1.76
2.72 2.69 2.91 3.15 3.30 3.19 3.14 3.34 3.62 3.55 3.43 3.39 3.52 3.57 3.74 3.57 3.24 3.07 2.68 2.43 2.27 2.02 2.10 2.14 2.14 2.26 2.49 2.88 3.08 2.54 2.37 2.15 2.06 2.44 3.23 3.84 4.06 3.75 3.29 3.18 3.42 3.41 2.94
2.66 2.60 2.69 3.02 3.12 3.06 3.01 3.10 3.18 3.21 3.23 3.39 3.39 3.30 3.51 3.53 3.36 3.38 3.00 2.65 2.36 1.91 1.85 1.93 2.04 2.17 2.30 2.47 2.21 2.09 2.19 2.03 1.88 1.88 2.15 2.60 3.06 3.28 3.19 3.29 3.60 3.85 3.86
2.59 2.57 2.56 2.72 2.65 2.64 2.74 2.96 2.97 2.91 2.95 3.08 3.05 3.07 3.04 2.95 3.03 3.15 3.11 2.70 2.36 1.88 1.86 1.79 1.80 1.99 1.95 2.23 2.27 2.13 2.00 1.87 1.74 1.72 1.79 1.90 2.18 2.44 2.69 2.91 3.33 3.76 4.00
2.52 2.47 2.40 2.35 2.29 2.31 2.37 2.68 2.78 2.72 2.79 2.79 2.71 2.94 2.77 2.61 2.78 2.81 2.90 3.02 2.75 2.43 2.36 2.15 1.79 1.76 1.91 2.09 2.18 2.10 1.83 1.81 1.64 1.58 1.58 1.60 1.70 1.83 1.98 2.24 2.54 2.80 3.09
2.17 2.23 2.21 2.12 2.08 2.17 2.28 2.38 2.39 2.38 2.49 2.47 2.54 2.60 2.42 2.44 2.53 2.56 2.73 2.98 3.03 2.83 2.74 2.55 2.12 1.85 1.88 2.06 2.28 2.03 1.93 1.79 1.63 1.53 1.45 1.42 1.43 1.49 1.57 1.69 1.89 2.08 2.19
2.19 2.10 2.04 1.96 1.96 1.99 2.04 2.17 2.14 2.19 2.19 2.18 2.37 2.43 2.38 2.36 2.49 2.45 2.51 2.73 2.92 2.97 2.80 2.54 2.27 1.95 1.96 1.85 2.06 2.02 2.01 1.93 1.69 1.51 1.35 1.25 1.25 1.32 1.41 1.48 1.55 1.67 1.73
2.25 2.22 2.14 2.08 1.94 1.86 1.92 2.00 1.90 2.01 2.04 2.05 2.04 2.11 2.14 2.27 2.42 2.41 2.46 2.51 2.74 3.03 2.94 2.75 2.53 2.32 2.18 2.07 1.92 1.89 1.83 1.75 1.57 1.44 1.24 1.14 1.14 1.16 1.21 1.28 1.38 1.48 1.56
1.92 1.93 1.89 1.89 1.89 1.95 2.03 1.96 1.89 1.91 1.99 1.95 2.02 2.15 2.06 2.22 2.37 2.32 2.42 2.43 2.60 2.93 3.04 3.15 3.12 2.80 2.48 2.30 2.22 2.05 1.70 1.55 1.58 1.51 1.35 1.19 1.11 1.09 1.08 1.10 1.19 1.32 1.44
1.88 1.85 1.84 1.82 1.83 2.00 2.13 2.10 2.06 2.12 2.14 2.02 2.09 2.13 2.01 2.13 2.20 2.20 2.26 2.33 2.50 2.72 2.95 2.93 2.97 2.83 2.65 2.38 2.46 2.20 1.91 1.84 1.50 1.45 1.38 1.21 1.13 1.08 1.05 1.08 1.13 1.17 1.25
1.93 1.99 1.97 1.91 1.93 1.88 1.92 2.07 2.19 2.19 2.16 2.07 2.05 1.96 1.83 1.83 1.92 2.06 2.06 2.19 2.40 2.59 2.77 2.72 2.76 2.82 2.85 2.82 2.83 2.61 2.42 2.18 1.82 1.45 1.47 1.30 1.23 1.13 1.02 0.97 0.99 1.06 1.18
1.82 2.01 2.03 2.00 1.98 1.90 1.79 1.89 2.00 1.93 1.98 1.96 1.90 1.73 1.53 1.55 1.63 1.69 1.66 1.98 2.27 2.40 2.49 2.54 2.62 2.79 2.91 3.11 2.92 2.78 2.67 2.58 2.27 1.92 1.87 1.54 1.40 1.20 1.04 0.99 0.99 0.98 1.04
1.90 1.95 1.93 1.95 1.87 1.60 1.66 1.63 1.60 1.63 1.71 1.75 1.78 1.75 1.57 1.43 1.36 1.38 1.36 1.51 1.82 1.98 2.17 2.43 2.56 2.76 2.85 2.89 3.05 3.01 2.94 2.78 2.52 2.23 2.23 2.16 1.99 1.81 1.49 1.18 1.13 1.02 0.95
1.87 1.78 1.72 1.74 1.72 1.65 1.51 1.33 1.30 1.41 1.58 1.65 1.69 1.71 1.46 1.31 1.36 1.23 1.30 1.37 1.40 1.49 1.65 2.02 2.30 2.40 2.45 2.50 2.78 2.90 2.90 2.78 2.70 2.54 2.58 2.57 2.41 2.15 1.70 1.45 1.38 1.17 1.06
1.72 1.75 1.66 1.66 1.76 1.66 1.54 1.29 1.18 1.16 1.36 1.42 1.40 1.41 1.42 1.40 1.32 1.36 1.35 1.36 1.28 1.29 1.36 1.40 1.55 1.74 2.01 2.24 2.43 2.67 2.94 2.90 2.85 2.78 2.75 2.81 2.62 2.47 2.10 1.78 1.60 1.33 1.21
1.69 1.71 1.70 1.73 1.74 1.69 1.60 1.37 1.25 1.24 1.37 1.40 1.42 1.41 1.48 1.54 1.52 1.37 1.32 1.37 1.39 1.42 1.38 1.40 1.35 1.41 1.54 1.66 1.83 2.12 2.45 2.79 3.00 2.98 2.78 2.85 2.76 2.79 2.74 2.33 1.87 1.61 1.32
1.72 1.74 1.79 1.77 1.69 1.65 1.52 1.30 1.25 1.29 1.48 1.58 1.70 1.69 1.57 1.45 1.43 1.29 1.29 1.40 1.38 1.39 1.33 1.31 1.27 1.24 1.23 1.35 1.51 1.69 1.96 2.33 2.63 2.78 2.69 2.81 2.96 3.28 3.44 2.94 2.32 1.87 1.63